User: anonymous   Login
Location: Gipe Farm
(40.9466°N, 95.5370°W)
Time: 03:34:32
(UTC-06:00)
Language:

Cosmos 2082 Rocket - Orbit

View from above orbital plane
View from above orbital plane
View from above satellite
View from above satellite

Ground track
Ground track

The orbit data is extracted from the following two-line orbital elements,

1 20625U 90046B   14351.25666412  .00000313  00000-0  18763-3 0  8905
2 20625 071.0006 265.1062 0012791 047.4991 064.9862 14.14552372268732
Epoch (UTC): 17 December 2014 06:09:35
Eccentricity: 0.0012791
inclination: 71.0006°
perigee height: 834 km
apogee height: 853 km
right ascension of ascending node: 265.1062°
argument of perigee: 47.4991°
revolutions per day: 14.14552372
mean anomaly at epoch: 64.9862°
orbit number at epoch: 26873

The dashed part of the orbit path shows where the satellite is in the earth's shadow,  

DLR